Tracking 18850 objects as of 22-Nov-2017
HD Live streaming from Space Station
objects crossing your sky now

FENGYUN 1C DEB

Track FENGYUN 1C DEB now!
10-day predictions


NORAD ID: 30820
Int'l Code: 1999-025AVE
Perigee: 838.7 km
Apogee: 929.9 km
Inclination: 98.6 °
Period: 102.5 minutes
Semi major axis: 7255 km
RCS: 0.0172 m2 (small)
Launch date: May 10, 1999
Source: People's Republic of China (PRC)
Launch site: Taiyaun Space Center, China (TSC)

Note: This is SATELLITE DEBRIS
aabbcc
Your satellite tracking list
Your tracking list is empty




NASA's NSSDC Master Catalog

Two Line Element Set (TLE):
1 30820U 99025AVE 17324.72042848 +.00001057 +00000-0 +67276-3 0  9994
2 30820 098.5644 139.3693 0062848 254.3440 237.7894 14.04808906549610
Source of the keplerian elements: AFSPC